Regional Weather Roundup
Issued by NWS

Home | Current Version | Previous Version | Text Only | Print | Product List | Glossary Off
Versions: 1 2 3 4 5 6 7 8 9 10 11 12 13 14 15 16 17 18 19 20 21 22 23 24 25 26 27 28 29 30 31 32 33 34 35 36 37 38 39 40 41 42 43 44 45 46 47 48 49 50

000
ASUS43 KOAX 252110
RWRNE

WEATHER ROUNDUP FOR NEBRASKA
NATIONAL WEATHER SERVICE OMAHA NE
400 PM CDT TUE JUL 25 2017

NOTES: SATELLITE DATA IS BEING USED TO AUGMENT CLOUD COVER ABOVE
       12000 FEET.
       "FAIR" INDICATES FEW OR NO CLOUDS BELOW 12,000 FEET WITH NO
       SIGNIFICANT WEATHER AND/OR OBSTRUCTIONS TO VISIBILITY.


NEZ001>004-019>022-054>056-252200-
NEBRASKA PANHANDLE

CITY           SKY/WX    TMP DP  RH WIND       PRES   REMARKS
SCOTTSBLUFF    MOSUNNY   95  52  23 W10       29.96F HX  92
ALLIANCE       MOSUNNY   98  48  18 W10G20    29.93F HX  94
CHADRON        PTSUNNY   94  55  26 NE13G21   29.95S HX  92
GORDON         FAIR      92  60  34 N16G24    29.95R HX  92
KIMBALL        MOSUNNY   91  49  23 N18G24    30.04F
SIDNEY         CLOUDY    98  48  18 VRB7G17   29.98F HX  94
$$

NEZ057>060-069>072-079>082-252200-
SOUTHWEST NEBRASKA

CITY           SKY/WX    TMP DP  RH WIND       PRES   REMARKS
NORTH PLATTE   SUNNY     99  65  32 S16G26    29.91F HX 102
IMPERIAL       SUNNY    100  58  24 S13G24    29.92F HX  99
LEXINGTON      SUNNY     93  72  49 SE17      29.95F HX 101
MCCOOK         SUNNY    101  63  28 S16G28    29.91F HX 103
OGALLALA       SUNNY    100  58  24 S15       29.92F HX 100
$$

NEZ005>010-023>029-035>040-094-252200-
NORTH CENTRAL NEBRASKA

CITY           SKY/WX    TMP DP  RH WIND       PRES   REMARKS
VALENTINE      MOSUNNY  104  50  16 S13       29.86F HX 101
AINSWORTH      CLOUDY   102  62  27 S15G22    29.90F HX 104
BROKEN BOW     SUNNY     96  69  41 S22G31    29.95S HX 102
O`NEILL        SUNNY     94  70  44 S18G26    29.91F HX 100
ORD            CLOUDY    93  67  42 S18G28    29.93F HX  96
THEDFORD       SUNNY    101  59  24 SW12G24   29.91F HX 101
$$

NEZ041-046>049-061>064-073>077-083>087-252200-
SOUTH CENTRAL NEBRASKA

CITY           SKY/WX    TMP DP  RH WIND       PRES   REMARKS
GRAND ISLAND   CLOUDY    93  68  43 S14       29.97F HX  97
AURORA         CLOUDY    91  69  48 S14G20    29.98F HX  95
HASTINGS       SUNNY     95  64  35 S15G22    29.98F HX  97
HEBRON         MOSUNNY   96  64  35 S15       29.98S HX  97
HOLDREGE       MOSUNNY   92  68  45 S15       29.97S HX  96
KEARNEY        SUNNY     95  71  45 S20       29.97S HX 102
YORK           MOSUNNY   90  70  51 S10       29.98F HX  95
$$

NEZ011>018-030>034-042>045-252200-
NORTHEAST NEBRASKA

CITY           SKY/WX    TMP DP  RH WIND       PRES   REMARKS
NORFOLK        SUNNY     96  58  27 S18G29    29.94S HX  95
ALBION         MOSUNNY   93  69  44 S13G20    29.95F HX  98
BLAIR          SUNNY     93  74  53 S13G18    29.99S HX 103
COLUMBUS       MOSUNNY   94  68  42 S20G26    29.96F HX  98
FREMONT        SUNNY     96  67  39 S14G22    29.97F HX 100
TEKAMAH        SUNNY     95  71  45 S12       29.95F HX 102
WAYNE          SUNNY     96  65  35 S21G28    29.94S HX  98
$$

NEZ050>053-065>068-078-088>093-252200-
SOUTHEAST NEBRASKA

CITY           SKY/WX    TMP DP  RH WIND       PRES   REMARKS
LINCOLN        CLOUDY    97  68  38 S15       29.97F HX 102
OMAHA EPPLEY   MOSUNNY   96  74  48 S16G25    29.97F HX 107
BEATRICE       SUNNY     97  68  39 S13G18    29.98F HX 102
FALLS CITY     SUNNY     95  70  44 SE14G22   30.00F HX 101
NEBRASKA CITY  SUNNY     94  72  48 S9        30.00F HX 101
PLATTSMOUTH    SUNNY     93  71  47 SE10G16   29.99F HX 100
$$

NEZ044-045-051>053-067-252200-
OMAHA AREA

CITY           SKY/WX    TMP DP  RH WIND       PRES   REMARKS
OMAHA EPPLEY   MOSUNNY   96  74  48 S16G25    29.97F HX 107
BLAIR          SUNNY     93  74  53 S13G18    29.99S HX 103
FREMONT        SUNNY     96  67  39 S14G22    29.97F HX 100
MILLARD        SUNNY     97  74  47 S13G20    29.97F HX 108
PLATTSMOUTH    SUNNY     93  71  47 SE10G16   29.99F HX 100
WAHOO          FAIR      95  65  37 S14G21    29.97F HX  98
$$



USA.gov is the U.S. government's official web portal to all federal, state and local government web resources and services.